Regional Weather Roundup
Issued by NWS

Home | Current Version | Previous Version | Graphics & Text | Print | Product List | Glossary Off
Versions: 1 2 3 4 5 6 7 8 9 10 11 12 13 14 15 16 17 18 19 20 21 22 23 24 25 26 27

000
ASUS45 KBOU 200507
RWRCO

WEATHER ROUNDUP FOR COLORADO
NATIONAL WEATHER SERVICE DENVER/BOULDER CO
1000 PM MST SUN FEB 19 2017

NOTE: "FAIR" INDICATES FEW OR NO CLOUDS BELOW 12000 FEET WITH NO
SIGNIFICANT WEATHER AND/OR OBSTRUCTIONS TO VISIBILITY.

COZ001>005-013-030-031-200600-
...NORTHWEST COLORADO...

CITY           SKY/WX    TMP DP  RH WIND       PRES   REMARKS
CRAIG          FAIR      33  30  88 NW3       29.93R
HAYDEN         FAIR      30  27  86 SW6       29.93R WCI  24
MEEKER         LGT SNOW  33  33 100 CALM      29.95R FOG
MOUNT WERNER   NOT AVBL
STEAMBOAT SPGS CLOUDY    31  31  99 S6        29.92R VSB 3/4 WCI  25
WALDEN         NOT AVBL
$$

COZ006>008-011-200600-
...WEST CENTRAL VALLEYS...

CITY           SKY/WX    TMP DP  RH WIND       PRES   REMARKS
GRAND JUNCTION MOCLDY    40  40 100 CALM      29.95R
MONTROSE       LGT RAIN  39  36  89 W12       29.98R
EAGLE          LGT RAIN  36  32  87 W7        29.94R
RIFLE          CLOUDY    40  37  89 W9        29.94R
DELTA          CLOUDY    42  39  91 S5        29.96R
NUCLA          LGT RAIN  36  34  93 CALM      30.01R
$$

COZ017>023-064>068-200600-
...SOUTHWEST COLORADO...

CITY           SKY/WX    TMP DP  RH WIND       PRES   REMARKS
DURANGO        MOCLDY    34  31  88 SW12      29.96R WCI  25
CORTEZ         RAIN      38  36  92 N3        29.99R FOG
PAGOSA SPRINGS MOCLDY    32  32  99 E3        29.97R
TELLURIDE      NOT AVBL
WOLF CREEK PAS SNOW      18  18 100 S18G25    29.98S VSB 1/4 WCI   2
$$

COZ009-010-012-014-032>034-037-058>063-200600-
...CENTRAL COLORADO...

CITY           SKY/WX    TMP DP  RH WIND       PRES   REMARKS
ASPEN          LGT SNOW  32  29  88 N5        29.90R FOG     WCI  27
BUENA VISTA    FAIR      35  19  51 NW6       29.84R WCI  30
COPPER MTN     LGT SNOW  25  19  80 MISG      29.90R VSB 3/4
BERTHOUD PASS  HVY SNOW  16   5  62 MISG      29.82R VSB 1/4
COTTONWOOD PAS MOCLDY    32  19  59 NW12G24   29.84S WCI  23
GUNNISON       MIX PCPN  32  29  88 W13       29.92R WCI  22
KREMMLING      CLOUDY    37  32  81 NW6       29.91R
LEADVILLE      LGT SNOW  24  20  84 NE7       29.87R VSB 1   WCI  16
MONARCH PASS   FOG       19  18  93 W44G52    29.94R VSB 1/4 WCI  -2
SALIDA         MOCLDY    40  20  45 W20G31    29.90R
SUNLIGHT       NOT AVBL
WILKERSON PASS CLOUDY    21  19  93 W10G21    29.86S WCI  10
$$

COZ069>075-200600-
...SAN LUIS VALLEY/SANGRE DE CRISTO MOUNTAINS...

CITY           SKY/WX    TMP DP  RH WIND       PRES   REMARKS
ALAMOSA        FAIR      30  22  72 S7        29.88R WCI  23
LA VETA PASS   MOCLDY    27  19  74 NE30G47   29.82R WCI  10
SAGUACHE       FAIR      34  23  64 NW13G18   29.88R WCI  25
$$

COZ035-036-038>040-200600-
...NORTHERN COLORADO FRONT RANGE...

CITY           SKY/WX    TMP DP  RH WIND       PRES   REMARKS
DENVER INTL AP LGT RAIN  48  34  58 NW12G20   29.71R
DMNS CITY PARK   N/A     49  33  53 NW5       29.71R
AURORA         LGT RAIN  44  35  69 W14       29.72R
FRONT RANGE AP NOT AVBL
ERIE MUNI ARPT MOCLDY    47  37  67 CALM      29.71R
BOULDER MUN AP MOCLDY    48  30  49 CALM      29.70R
CENTENNIAL     CLOUDY    48  30  49 W6        29.72R
BROOMFIELD     CLOUDY    46  36  66 W7        29.72R
FORT COLLINS   FAIR      49  30  48 N20G28    29.70R
LONGMONT       MOCLDY    49  37  64 S3        29.72R
$$

COZ041-046-047-076>085-087-088-200600-
...PIKES PEAK/PALMER DIVIDE AND SOUTHERN FOOTHILLS...

CITY           SKY/WX    TMP DP  RH WIND       PRES   REMARKS
COLO. SPRINGS  FAIR      45  23  42 N16       29.71R
A. F. ACADEMY  FAIR      42  24  49 NW18G28   29.71R
SCHRIEVER AFB  FAIR      43  24  47 NW20      29.71R
ELLICOTT       FAIR     N/A N/A N/A NW9       29.69R
FALCON         FAIR      41  24  50 NW18G26   29.72S
FORT CARSON    FAIR      43  20  39 CALM      29.68R
LIMON          FAIR      41  26  55 W7        29.68R
MONUMENT HILL  CLOUDY    39  27  60 NW9       29.77R
TRINIDAD       FAIR      41  17  38 W14       29.74F
$$

COZ042>045-048>051-090-091-200600-
...NORTHEAST COLORADO...

CITY           SKY/WX    TMP DP  RH WIND       PRES   REMARKS
GREELEY ARPT   MOCLDY    47  39  74 NW10      29.71R
AKRON          FAIR      50  29  44 SW14      29.62R
BURLINGTON     FAIR      51  33  50 S17       29.66F
WRAY           NOT AVBL
STERLING       FAIR      50  32  50 W5        29.61S
HOLYOKE        FAIR      59  32  36 S14G21    29.63F
FORT MORGAN    MOCLDY    49  34  57 NW21G26   29.67R
$$

COZ086-089-092>099-200600-
...SOUTHEAST COLORADO...

CITY           SKY/WX    TMP DP  RH WIND       PRES   REMARKS
PUEBLO         FAIR      50  20  30 W18       29.67S
LA JUNTA       FAIR      48  22  35 SW16      29.66F
LAMAR          FAIR      51  30  44 S12       29.66R
SPRINGFIELD      N/A     42  31  64 S14       29.71F
$$




USA.gov is the U.S. government's official web portal to all federal, state and local government web resources and services.